Regional Weather Roundup
Issued by NWS

Home | Current Version | Previous Version | Graphics & Text | Print | Product List | Glossary On
Versions: 1 2 3 4 5 6 7 8 9 10 11 12 13 14 15 16 17 18 19 20 21 22 23 24 25 26 27 28 29 30 31 32 33 34 35 36 37 38 39 40 41 42 43 44 45 46 47 48 49 50
313
ASUS45 KBOU 261107
RWRCO

WEATHER ROUNDUP FOR COLORADO
NATIONAL WEATHER SERVICE DENVER/BOULDER CO
500 AM MDT SUN MAR 26 2017

NOTE: "FAIR" INDICATES FEW OR NO CLOUDS BELOW 12000 FEET WITH NO
SIGNIFICANT WEATHER AND/OR OBSTRUCTIONS TO VISIBILITY.

COZ001>005-013-030-031-261200-
...NORTHWEST COLORADO...

CITY           SKY/WX    TMP DP  RH WIND       PRES   REMARKS
CRAIG          CLOUDY    38  32  79 W9        29.93R
HAYDEN         CLOUDY    36  30  80 W14       29.91R
MEEKER         LGT RAIN  38  33  82 NW10      29.92R
MOUNT WERNER   NOT AVBL
STEAMBOAT SPGS CLOUDY    36  34  95 SW8       29.89R
WALDEN         NOT AVBL
$$

COZ006>008-011-261200-
...WEST CENTRAL VALLEYS...

CITY           SKY/WX    TMP DP  RH WIND       PRES   REMARKS
GRAND JUNCTION CLOUDY    47  37  68 N7        29.87S
MONTROSE       LGT RAIN  39  38  96 SE9       29.92R
EAGLE          CLOUDY    35  31  85 CALM      29.90S
RIFLE          LGT RAIN  41  38  89 W5        29.89R
DELTA          CLOUDY    45  42  89 CALM      29.89S
NUCLA          CLOUDY    41  37  87 E3        29.95S
$$

COZ017>023-064>068-261200-
...SOUTHWEST COLORADO...

CITY           SKY/WX    TMP DP  RH WIND       PRES   REMARKS
DURANGO        MOCLDY    36  32  85 W13       29.88F
CORTEZ         CLOUDY    39  38  96 CALM      29.93S
PAGOSA SPRINGS CLOUDY    35  35 100 SW8       29.88F WCI  28
TELLURIDE      NOT AVBL
WOLF CREEK PAS HVY SNOW  19  19 100 S13G20    29.95S VSB 1/4 WCI   7
$$

COZ009-010-012-014-032>034-037-058>063-261200-
...CENTRAL COLORADO...

CITY           SKY/WX    TMP DP  RH WIND       PRES   REMARKS
ASPEN          CLOUDY    35  34  96 W3        29.87S
BUENA VISTA    MOCLDY    35  28  76 S3        29.82F
COPPER MTN     SNOW      28  23  80 MISG      29.92F VSB 1/4
BERTHOUD PASS  CLOUDY    19   9  63 N10       29.92S WCI   8
COTTONWOOD PAS MOCLDY    34  30  86 CALM      29.86F
GUNNISON       FAIR      34  30  85 CALM      29.86F
KREMMLING      CLOUDY    37  36  93 CALM      29.90R
LEADVILLE      CLOUDY    29  24  82 NW9       29.87F WCI  20
MONARCH PASS   SNOW      25  23  93 NW7       29.99F VSB<1/4 WCI  17
SALIDA         CLOUDY    38  35  87 CALM      29.89F
SUNLIGHT       FOG       27  25  93 NW3       29.98S VSB<1/4
WILKERSON PASS CLOUDY    27  21  80 NE6       29.91S WCI  20
$$

COZ069>075-261200-
...SAN LUIS VALLEY/SANGRE DE CRISTO MOUNTAINS...

CITY           SKY/WX    TMP DP  RH WIND       PRES   REMARKS
ALAMOSA        CLOUDY    34  33  96 NE7       29.81F WCI  28
LA VETA PASS   NOT AVBL
SAGUACHE       CLOUDY    34  32  93 S5        29.83S WCI  30
$$

COZ035-036-038>040-261200-
...NORTHERN COLORADO FRONT RANGE...

CITY           SKY/WX    TMP DP  RH WIND       PRES   REMARKS
DENVER INTL AP CLOUDY    44  33  65 N9        29.77F
DMNS CITY PARK   N/A     45  33  61 N3        29.78S
AURORA         CLOUDY    40  31  71 NE3       29.78F
FRONT RANGE AP FAIR      43  32  65 CALM      29.79S
ERIE MUNI ARPT FAIR      41  34  76 CALM      29.78R
BOULDER MUN AP FAIR      43  32  65 CALM      29.77F
CENTENNIAL     MOCLDY    40  30  67 CALM      29.78F
BROOMFIELD     FAIR      43  32  65 N8        29.79R
FORT COLLINS   FAIR      46  36  68 N12       29.79S
LONGMONT       FAIR      45  35  68 NW7       29.79F
$$

COZ041-046-047-076>085-087-088-261200-
...PIKES PEAK/PALMER DIVIDE AND SOUTHERN FOOTHILLS...

CITY           SKY/WX    TMP DP  RH WIND       PRES   REMARKS
COLO. SPRINGS  LGT RAIN  43  29  57 N24       29.77F
A. F. ACADEMY  CLOUDY    36  28  72 N3        29.79S
SCHRIEVER AFB  MOCLDY    38  29  70 N17       29.75
ELLICOTT         N/A    N/A N/A N/A NE16      29.71F
FALCON         LGT RAIN  40  27  60 NW13      29.80F
FORT CARSON    CLOUDY    41  32  70 NW16G24   29.73F
LIMON          CLOUDY    38  33  82 E3        29.78F
MONUMENT HILL  MOCLDY    32  25  74 SW5       29.82R WCI  27
TRINIDAD       FAIR      39  32  76 SW9       29.72S
$$

COZ042>045-048>051-090-091-261200-
...NORTHEAST COLORADO...

CITY           SKY/WX    TMP DP  RH WIND       PRES   REMARKS
GREELEY ARPT   FAIR      44  30  57 N10       29.79S
AKRON          CLOUDY    42  29  59 SE12      29.78F
BURLINGTON     FOG       39  39 100 SE12      29.78F VSB 3/4
WRAY           NOT AVBL
STERLING       CLOUDY    43  32  65 NE6       29.78S
HOLYOKE        FAIR      41  37  87 SE3       29.82S FOG
FORT MORGAN    FAIR      36  31  81 NE8       29.78S
$$

COZ086-089-092>099-261200-
...SOUTHEAST COLORADO...

CITY           SKY/WX    TMP DP  RH WIND       PRES   REMARKS
PUEBLO         CLOUDY    45  28  51 N7        29.73F
LA JUNTA       FAIR      38  30  73 NE6       29.68F
LAMAR          MOCLDY    39  36  89 E8        29.69F
SPRINGFIELD      N/A     36  26  67 VRB3      29.69F
$$




USA.gov is the U.S. government's official web portal to all federal, state and local government web resources and services.